[[{"header":{"parameterUnit":"m.s-1","parameterCategory":1,"la1":30.2991,"la2":30.254,"lo1":-89.0895,"lo2":-89.0444,"dy":0.0017,"dx":0.0017,"nx":28,"ny":28,"refTime":"2023-09-30T09:00:00:Z","depth":0,"parameterNumber":2,"parameterNumberName":"U-component_of_WINDS"},"data":[0,0,0,0,0,0,0,0,0,0,0,0,0,0,0,0,0,0,0,0,0,0,0,0,0,0,0,0,0,0,0,0,0,0,0,0,0,0,0,0,0,0,0,0,0,0,0,0,0,0,0,0,0,0,0,0,0,0,-4.3459,-4.346,0,-4.353,-4.3531,-4.3532,-4.3389,-4.3385,-4.338,-4.3376,-4.345,-4.3456,-4.3462,0,0,0,0,0,0,0,0,0,0,0,0,0,-4.3202,-4.3207,-4.3459,-4.346,-4.3461,-4.353,-4.3531,-4.3532,-4.339,-4.3384,-4.3379,-4.3373,-4.3448,-4.3455,-4.3463,0,0,0,0,0,0,0,0,0,0,0,0,0,-4.3298,-4.3209,-4.3459,-4.3399,-4.3394,-4.353,-4.3531,-4.3532,-4.3391,-4.3384,-4.3377,-4.3371,-4.3445,-4.3454,-4.3464,-4.3663,0,0,-4.3493,-4.3497,0,0,0,0,0,0,0,0,-4.3292,-4.3307,-4.3407,-4.3403,-4.3398,-4.3444,-4.3467,-4.3576,-4.3393,-4.3392,-4.3375,-4.3367,-4.3454,-4.3462,-4.3491,-4.3666,-4.3669,-4.3494,-4.3499,-4.3503,-4.3506,0,0,0,0,0,0,0,-4.3286,-4.3303,-4.3487,-4.3408,-4.3403,-4.3368,-4.3374,-4.3487,-4.3461,-4.3392,-4.3382,-4.3392,-4.345,-4.3482,-4.3491,-4.367,-4.3493,-4.3502,-4.3508,-4.3511,-4.4014,-4.4021,0,0,0,0,0,0,-4.3287,-4.3299,-4.3485,-4.3489,-4.3327,-4.3379,-4.3385,-4.3436,-4.346,-4.3457,-4.3398,-4.3385,-4.3469,-4.348,-4.3493,-4.3729,-4.3503,-4.3512,-4.3518,-4.4006,-4.4016,-4.4024,0,0,0,0,0,0,-4.3282,-4.3305,-4.3482,-4.3391,-4.3411,-4.339,-4.3449,-4.3441,-4.3473,-4.3464,-4.3459,-4.3435,-4.3464,-4.348,-4.3622,-4.373,-4.3517,-4.3525,-4.3997,-4.4009,-4.402,-4.4202,0,0,0,0,0,0,-4.3275,-4.3304,-4.3379,-4.3394,-4.3417,-4.361,-4.3456,-4.3448,-4.349,-4.3474,-4.3498,-4.3495,-4.346,-4.3608,-4.3631,-4.3739,-4.3533,-4.3988,-4.4003,-4.4016,-4.4186,-4.4218,-4.4246,0,0,0,0,0,-4.3266,-4.3427,-4.3383,-4.3407,-4.351,-4.3616,-4.3629,-4.3584,-4.3499,-4.3575,-4.3569,-4.3495,-4.3714,-4.3624,-4.3649,-4.3761,-4.3981,-4.3998,-4.4015,-4.4173,-4.4212,-4.4245,0,0,0,0,0,0,-4.3425,-4.3428,-4.338,-4.355,-4.3584,-4.3592,-4.3686,-4.3627,-4.3686,-4.3669,-4.3611,-4.3617,-4.3771,-4.3779,-4.368,-4.3955,-4.3833,-4.3856,-4.3945,-4.3981,-4.4011,-4.4006,-4.354,0,0,0,0,0,-4.348,-4.3566,-4.3563,-4.3714,-4.3734,-4.3708,-4.3752,-4.3714,-4.3747,-4.3761,-4.3766,-4.3801,-4.3878,-4.3929,-4.3999,-4.4186,-4.419,-4.4275,-4.4305,-4.4329,-4.4351,-4.4451,-4.449,-4.408,-4.408,-4.408,0,0,-4.3595,-4.3607,-4.3664,-4.3747,-4.3768,-4.3859,-4.372,-4.3822,-4.3889,-4.3776,-4.3911,-4.3916,-4.3951,-4.4117,-4.419,-4.4129,-4.4464,-4.4351,-4.4371,-4.4379,-4.4473,-4.4512,-4.4546,-4.4092,-4.409,-4.4088,0,0,-4.385,-4.3867,-4.3995,-4.402,-4.4055,-4.4036,-4.4067,-4.4085,-4.4084,-4.4217,-4.4136,-4.4214,-4.4347,-4.4376,-4.4409,-4.4676,-4.461,-4.47,-4.4856,-4.4955,-4.4987,-4.5016,-4.5113,-4.5148,-4.4721,-4.4721,-4.4722,0,-4.3988,-4.4121,-4.4069,-4.4177,-4.4216,-4.4118,-4.4248,-4.4274,-4.4331,-4.4361,-4.4291,-4.4456,-4.4473,-4.4645,-4.471,-4.4739,-4.4774,-4.4698,-4.4987,-4.5015,-4.504,-4.5133,-4.5169,-4.4732,-4.4731,-4.473,-4.4729,0,-4.429,-4.4384,-4.4483,-4.454,-4.459,-4.4709,-4.4675,-4.4732,-4.4691,-4.468,-4.4818,-4.4835,-4.4907,-4.4945,-4.4905,-4.5112,-4.5073,-4.4996,-4.4872,-4.5091,-4.5177,-4.5212,-4.4748,-4.4744,-4.4741,-4.4738,0,0,-4.4649,-4.4675,-4.4713,-4.4738,-4.477,-4.4841,-4.4956,-4.5026,-4.5077,-4.5119,-4.5215,-4.533,-4.5259,-4.5296,-4.5258,-4.5345,-4.5558,-4.5257,-4.5257,-4.5314,-4.5789,-4.5849,-4.589,-4.5514,-4.552,-4.5525,-4.5787,0,-4.4903,-4.51,-4.5057,-4.5251,-4.5337,-4.5246,-4.5345,-4.5376,-4.5369,-4.5442,-4.5433,-4.5517,-4.5416,-4.5438,-4.5519,-4.5515,-4.5653,-4.5495,-4.5604,-4.5608,-4.56,-4.5934,-4.5997,-4.6243,-4.582,-4.5825,-4.5829,0,-4.5227,-4.5282,-4.5485,-4.5503,-4.5538,-4.5629,-4.569,-4.5761,-4.5794,-4.5782,-4.5824,-4.577,-4.5884,-4.5758,-4.5915,-4.5809,-4.5851,-4.5855,-4.5864,-4.5874,-4.5734,-4.5956,-4.632,-4.6359,-4.5881,-4.5877,-4.5873,0,-4.5471,-4.5595,-4.5733,-4.5757,-4.5782,-4.5848,-4.5861,-4.5887,-4.5933,-4.5986,-4.6016,-4.6082,-4.612,-4.6173,-4.6139,-4.605,-4.6303,-4.6173,-4.6298,-4.63,-4.6357,-4.6355,-4.6736,-4.6381,-4.6381,-4.638,-4.6379,0,-4.5761,-4.589,-4.5843,-4.5928,-4.607,-4.6018,-4.616,-4.6162,-4.6186,-4.6271,-4.6195,-4.6276,-4.6224,-4.6302,-4.6275,-4.6411,-4.6428,-4.6423,-4.6415,-4.6431,-4.6432,-4.6459,-4.6442,-4.639,-4.6387,-4.6385,-4.6384,0,-4.6058,-4.6032,-4.6177,-4.6188,-4.6194,-4.6298,-4.6308,-4.6387,-4.6374,-4.6482,-4.6505,-4.6485,-4.6572,-4.6542,-4.6636,-4.6618,-4.6791,-4.676,-4.6781,-4.6773,-4.6901,-4.689,-4.7315,-4.7369,-4.6977,-4.6981,-4.6984,0,-4.6246,-4.6343,-4.6365,-4.6416,-4.6435,-4.6518,-4.6564,-4.6518,-4.6569,-4.6614,-4.6689,-4.6769,-4.6831,-4.6975,-4.6969,-4.704,-4.7012,-4.7155,-4.7022,-4.7036,-4.7016,-4.7012,-4.7022,-4.7183,-4.7187,-4.7191,-4.7194,0,-4.6584,-4.6566,-4.6635,-4.6702,-4.6759,-4.6808,-4.6851,-4.6897,-4.6853,-4.6915,-4.7003,-4.7051,-4.7147,-4.7228,-4.7292,-4.7306,-4.7245,-4.7236,-4.7269,-4.7288,-4.7297,-4.7296,-4.6856,-4.7227,-4.7224,-4.7221,-4.7219,-4.7218,-4.6833,-4.6915,-4.6944,-4.7024,-4.7052,-4.7094,-4.7169,-4.7166,-4.7239,-4.7313,-4.728,-4.7383,-4.7414,-4.7494,-4.7517,-4.7597,-4.7541,-4.7589,-4.7601,-4.7614,-4.7632,-4.7282,-4.7608,-4.7607,-4.7606,-4.7605,-4.7604,0,-4.7168,-4.7182,-4.7256,-4.7319,-4.7383,-4.7317,-4.7361,-4.7419,-4.751,-4.7544,-4.7607,-4.7709,-4.7788,-4.7788,-4.7862,-4.7926,-4.7899,-4.7947,-4.7943,-4.7947,-4.7676,-4.7641,-4.7967,-4.7967,-4.7967,-4.7967,-4.7967,-4.7967,-4.735,-4.7486,-4.7472,-4.7622,-4.7634,-4.7734,-4.7765,-4.7804,-4.7831,-4.7949,-4.8014,-4.8013,-4.8034,-4.8109,-4.8178,-4.8176,-4.8208,-4.8267,-4.8255,-4.8002,-4.7966,-4.7932,-4.7899,-4.8274,-4.8274,-4.852,-4.8522,-4.8524]},{"header":{"parameterUnit":"m.s-1","parameterCategory":1,"la1":30.2991,"la2":30.254,"lo1":-89.0895,"lo2":-89.0444,"dy":0.0017,"dx":0.0017,"nx":28,"ny":28,"refTime":"2023-09-30T09:00:00:Z","depth":0,"parameterNumber":3,"parameterNumberName":"V-component_of_WINDS"},"data":[0,0,0,0,0,0,0,0,0,0,0,0,0,0,0,0,0,0,0,0,0,0,0,0,0,0,0,0,0,0,0,0,0,0,0,0,0,0,0,0,0,0,0,0,0,0,0,0,0,0,0,0,0,0,0,0,0,0,-2.7354,-2.7354,0,-2.7357,-2.7357,-2.7358,-2.7322,-2.7321,-2.732,-2.7319,-2.7322,-2.7323,-2.7324,0,0,0,0,0,0,0,0,0,0,0,0,0,-2.7315,-2.7316,-2.7354,-2.7354,-2.7354,-2.7357,-2.7357,-2.7358,-2.7322,-2.7321,-2.7319,-2.7318,-2.7321,-2.7322,-2.7324,0,0,0,0,0,0,0,0,0,0,0,0,0,-2.7326,-2.7316,-2.7354,-2.7337,-2.7335,-2.7357,-2.7357,-2.7358,-2.7322,-2.7321,-2.7319,-2.7318,-2.7321,-2.7322,-2.7324,-2.7363,0,0,-2.7328,-2.7329,0,0,0,0,0,0,0,0,-2.7326,-2.7328,-2.7339,-2.7338,-2.7336,-2.7338,-2.7345,-2.7359,-2.7322,-2.7327,-2.7319,-2.7317,-2.7328,-2.7329,-2.7333,-2.7363,-2.7363,-2.7328,-2.7329,-2.733,-2.733,0,0,0,0,0,0,0,-2.7325,-2.7327,-2.7355,-2.7339,-2.7338,-2.7328,-2.7328,-2.7347,-2.7336,-2.7326,-2.7324,-2.7325,-2.7327,-2.7331,-2.7333,-2.7363,-2.7328,-2.733,-2.7331,-2.7331,-2.7423,-2.7424,0,0,0,0,0,0,-2.7327,-2.7327,-2.7355,-2.7355,-2.7327,-2.733,-2.733,-2.7339,-2.7335,-2.7334,-2.7326,-2.7323,-2.733,-2.7331,-2.7333,-2.7376,-2.733,-2.7331,-2.7332,-2.7421,-2.7423,-2.7425,0,0,0,0,0,0,-2.7326,-2.733,-2.7355,-2.7341,-2.7343,-2.7332,-2.7342,-2.734,-2.7344,-2.7335,-2.7333,-2.7333,-2.7328,-2.733,-2.7355,-2.7376,-2.7332,-2.7333,-2.7419,-2.7422,-2.7424,-2.7465,0,0,0,0,0,0,-2.7325,-2.733,-2.7345,-2.7341,-2.7344,-2.7378,-2.7344,-2.7341,-2.7347,-2.7343,-2.7341,-2.7339,-2.7327,-2.7353,-2.7356,-2.7377,-2.7335,-2.7417,-2.742,-2.7423,-2.7461,-2.7468,-2.7474,0,0,0,0,0,-2.7324,-2.7357,-2.7346,-2.7349,-2.7363,-2.738,-2.7381,-2.7367,-2.7349,-2.7363,-2.7357,-2.7339,-2.7373,-2.7356,-2.7359,-2.7381,-2.7416,-2.7419,-2.7423,-2.7459,-2.7467,-2.7474,0,0,0,0,0,0,-2.7363,-2.7356,-2.7344,-2.7377,-2.7379,-2.7373,-2.7392,-2.7377,-2.7384,-2.738,-2.7362,-2.7362,-2.7389,-2.7388,-2.7368,-2.7417,-2.7391,-2.7395,-2.7417,-2.7425,-2.7431,-2.743,-2.7336,0,0,0,0,0,-2.7376,-2.739,-2.7383,-2.7412,-2.7414,-2.7403,-2.741,-2.7398,-2.74,-2.7401,-2.7397,-2.7399,-2.741,-2.7417,-2.7427,-2.7461,-2.7459,-2.7478,-2.7484,-2.7489,-2.7492,-2.7508,-2.7516,-2.7436,-2.7436,-2.7436,0,0,-2.7402,-2.7399,-2.741,-2.742,-2.7421,-2.7435,-2.7404,-2.7421,-2.7431,-2.7403,-2.7426,-2.7423,-2.7424,-2.7453,-2.7466,-2.7452,-2.7514,-2.7493,-2.7497,-2.7498,-2.7513,-2.752,-2.7527,-2.7438,-2.7438,-2.7437,0,0,-2.7456,-2.7457,-2.748,-2.7481,-2.7482,-2.7474,-2.748,-2.7476,-2.7473,-2.7495,-2.7474,-2.7486,-2.7506,-2.7506,-2.7509,-2.7562,-2.7545,-2.7566,-2.7598,-2.7614,-2.762,-2.7626,-2.7643,-2.765,-2.757,-2.757,-2.757,0,-2.7488,-2.751,-2.7494,-2.7512,-2.7517,-2.7492,-2.7515,-2.7516,-2.7521,-2.7524,-2.7509,-2.7532,-2.7531,-2.7559,-2.7571,-2.7576,-2.758,-2.7566,-2.7621,-2.7626,-2.7631,-2.7647,-2.7654,-2.7572,-2.7572,-2.7572,-2.7572,0,-2.7548,-2.7563,-2.7582,-2.7586,-2.7593,-2.7613,-2.76,-2.7609,-2.7597,-2.759,-2.7612,-2.761,-2.7617,-2.7623,-2.7612,-2.7649,-2.7641,-2.7624,-2.7597,-2.7641,-2.7656,-2.7662,-2.7576,-2.7575,-2.7574,-2.7574,0,0,-2.7628,-2.7622,-2.7629,-2.763,-2.7628,-2.7639,-2.7658,-2.7665,-2.7672,-2.7676,-2.769,-2.7706,-2.769,-2.7693,-2.7682,-2.7696,-2.7736,-2.7677,-2.7677,-2.7687,-2.7774,-2.7786,-2.7794,-2.7725,-2.7726,-2.7727,-2.7774,0,-2.768,-2.7711,-2.7697,-2.773,-2.7743,-2.7718,-2.7734,-2.7735,-2.7729,-2.7738,-2.7731,-2.7742,-2.7721,-2.7722,-2.7735,-2.7728,-2.7753,-2.7725,-2.7737,-2.7737,-2.7736,-2.7802,-2.7815,-2.7859,-2.778,-2.7781,-2.7781,0,-2.7745,-2.775,-2.7784,-2.7778,-2.7782,-2.7797,-2.7802,-2.7812,-2.7811,-2.7805,-2.7808,-2.7793,-2.781,-2.7784,-2.7807,-2.7788,-2.7792,-2.7789,-2.779,-2.779,-2.7761,-2.7802,-2.7873,-2.7879,-2.7791,-2.779,-2.7789,0,-2.7797,-2.7813,-2.7834,-2.7836,-2.783,-2.7841,-2.7839,-2.7837,-2.7841,-2.7845,-2.7848,-2.7854,-2.7857,-2.7862,-2.7849,-2.7832,-2.7872,-2.7846,-2.7867,-2.7867,-2.7876,-2.7875,-2.7947,-2.7881,-2.7881,-2.7881,-2.788,0,-2.7856,-2.7877,-2.7858,-2.7871,-2.7893,-2.7877,-2.7899,-2.7895,-2.7893,-2.7904,-2.7884,-2.7895,-2.7877,-2.7886,-2.7875,-2.7894,-2.7896,-2.7891,-2.7888,-2.7892,-2.7893,-2.7894,-2.789,-2.7882,-2.7882,-2.7882,-2.7881,0,-2.7918,-2.7906,-2.7928,-2.792,-2.7919,-2.7936,-2.7929,-2.794,-2.7932,-2.7947,-2.7949,-2.7936,-2.7946,-2.7933,-2.7941,-2.7934,-2.7959,-2.7952,-2.7959,-2.7957,-2.7978,-2.7976,-2.8052,-2.8061,-2.799,-2.7991,-2.7992,0,-2.7956,-2.7971,-2.7965,-2.7971,-2.797,-2.798,-2.7984,-2.7968,-2.7973,-2.7972,-2.7983,-2.7991,-2.7996,-2.8011,-2.8003,-2.8008,-2.8,-2.8027,-2.8001,-2.8004,-2.7999,-2.7997,-2.7998,-2.8032,-2.8033,-2.8033,-2.8034,0,-2.8023,-2.8016,-2.8023,-2.8027,-2.8033,-2.8036,-2.8037,-2.8043,-2.8026,-2.8032,-2.8041,-2.8045,-2.8053,-2.806,-2.8063,-2.806,-2.8044,-2.8042,-2.8047,-2.8051,-2.8054,-2.8051,-2.7972,-2.804,-2.804,-2.8039,-2.8039,-2.8038,-2.8073,-2.8085,-2.8081,-2.8089,-2.8088,-2.809,-2.8099,-2.8092,-2.8099,-2.8104,-2.8094,-2.8105,-2.8102,-2.8104,-2.8103,-2.8111,-2.81,-2.8107,-2.8109,-2.811,-2.8113,-2.8054,-2.8112,-2.8112,-2.8112,-2.8111,-2.8111,0,-2.8137,-2.8134,-2.8141,-2.8143,-2.8149,-2.8133,-2.8133,-2.8139,-2.8149,-2.8147,-2.8152,-2.8162,-2.8168,-2.8159,-2.8164,-2.8172,-2.8164,-2.8173,-2.8172,-2.8171,-2.8124,-2.8118,-2.8179,-2.8179,-2.8179,-2.8179,-2.8179,-2.8179,-2.8172,-2.819,-2.8182,-2.82,-2.8196,-2.8206,-2.8207,-2.8208,-2.8206,-2.8217,-2.8222,-2.8217,-2.8212,-2.8216,-2.8221,-2.8218,-2.822,-2.8231,-2.8226,-2.8182,-2.8175,-2.8169,-2.8163,-2.8232,-2.8233,-2.8272,-2.8273,-2.8273]}]]